Hourly Data Report for September 02, 2010

IQALUIT CLIMATE
NUNAVUT

63°44'50.000" N
68°32'40.000" W
33.50 m
2402592
71321
XFB

Download Data

Hourly Data (September 2010)
Hourly Data Report for September 2, 2010
TIME
LST
Temp Definition
°C
Dew Point Definition
°C
Rel Hum Definition
%
Precip. Amount Definition
mm

Wind Dir Definition
10's deg

Wind Spd Definition
km/h
Visibility Definition
km
Stn Press Definition
kPa
Hmdx Definition


Wind Chill Definition


Weather Definition


00:00 3.7 2.8 94     0   100.29     LegendNANA
01:00 3.4 2.8 96   3 4   100.29     LegendNANA
02:00 4.3 3.3 93   11 6   100.29     LegendNANA
03:00 3.5 2.7 94   1 4   100.24     LegendNANA
04:00 3.9 3.0 94   17 2   100.25     LegendNANA
05:00 4.1 2.9 92     0   100.22     LegendNANA
06:00 4.9 3.8 93   22 6   100.19     LegendNANA
07:00 6.3 4.9 91   33 6   100.15     LegendNANA
08:00 7.6 5.6 87   25 9   100.12     LegendNANA
09:00 9.0 5.4 78   23 4   100.09     LegendNANA
10:00 9.8 5.6 75   23 6   100.07     LegendNANA
11:00 9.8 5.6 75   21 6   100.05     LegendNANA
12:00 9.5 4.7 72   18 6   100.06     LegendNANA
13:00 9.9 4.7 70   20 6   100.06     LegendNANA
14:00 10.1 4.9 70   15 7   100.07     LegendNANA
15:00 10.1 4.7 69   21 9   100.09     LegendNANA
16:00 10.2 5.5 73   20 6   100.09     LegendNANA
17:00 8.5 5.3 80   16 6   100.13     LegendNANA
18:00 7.6 5.3 85   16 6   100.14     LegendNANA
19:00 6.0 4.9 93   14 9   100.18     LegendNANA
20:00 5.2 4.4 95   14 6   100.24     LegendNANA
21:00 5.5 4.4 93   13 2   100.24     LegendNANA
22:00 4.7 3.9 95   30 7   100.26     LegendNANA
23:00 4.4 3.8 96   32 9   100.26     LegendNANA

Notes on Data Quality.

Legend

  • E = Estimated
  • M = Missing
  • NA = Not Available*
  • [empty] = Indicates an unobserved value
Date modified: